This is the latest recevied weather packets stored in our database for station/object ZS2JO. If no packets are shown the sender has not sent any weather packets the latest 10 day(s).
| Time | Temp. | Humidity | Pressure | Rain* | Wind** | Luminosity | Snow |
|---|---|---|---|---|---|---|---|
| 1778144147 | 13.33° C | 99% | 1017.3 hPa | 2.29 mm | - | 73 W/m² | - |
| 1778143844 | 13.89° C | 99% | 1017 hPa | 3.05 mm | - | 109 W/m² | - |
| 1778143540 | 13.89° C | 99% | 1017.2 hPa | 4.83 mm | - | 66 W/m² | - |
| 1778143237 | 13.89° C | 99% | 1017 hPa | 3.05 mm | - | 123 W/m² | - |
| 1778142933 | 14.44° C | 99% | 1016.8 hPa | 1.27 mm | - | 81 W/m² | - |
| 1778142631 | 13.89° C | 99% | 1016.8 hPa | 4.32 mm | - | 84 W/m² | - |
| 1778142327 | 13.89° C | 99% | 1016.9 hPa | 1.78 mm | - | 92 W/m² | - |
| 1778142023 | 14.44° C | 99% | 1016.8 hPa | 0 mm | - | 65 W/m² | - |
| 1778141720 | 14.44° C | 99% | 1016.9 hPa | 0 mm | - | 107 W/m² | - |
| 1778141417 | 15° C | 99% | 1016.8 hPa | 0 mm | - | 300 W/m² | - |
| 1778141112 | 15° C | 99% | 1016.4 hPa | 0 mm | - | 365 W/m² | - |
| 1778140809 | 14.44° C | 99% | 1016.3 hPa | 0.51 mm | - | 166 W/m² | - |
| 1778140504 | 14.44° C | 99% | 1016.5 hPa | 0.51 mm | - | 84 W/m² | - |
| 1778140201 | 14.44° C | 99% | 1016.4 hPa | 1.78 mm | - | 107 W/m² | - |
| 1778139898 | 14.44° C | 99% | 1016.1 hPa | 0.51 mm | - | 51 W/m² | - |
| 1778139596 | 14.44° C | 99% | 1016.2 hPa | 3.56 mm | - | 33 W/m² | - |
| 1778139292 | 14.44° C | 99% | 1016.2 hPa | 8.38 mm | - | 28 W/m² | - |
| 1778138988 | 14.44° C | 99% | 1016 hPa | 13.72 mm | - | 43 W/m² | - |
| 1778138686 | 14.44° C | 99% | 1015.9 hPa | 8.38 mm | - | 64 W/m² | - |
| 1778138384 | 14.44° C | 99% | 1015.7 hPa | 1.78 mm | - | 72 W/m² | - |
| 1778138080 | 14.44° C | 99% | 1015.7 hPa | 1.78 mm | - | 28 W/m² | - |
| 1778137777 | 14.44° C | 99% | 1015.4 hPa | 0.51 mm | - | 31 W/m² | - |
| 1778137474 | 14.44° C | 99% | 1015.5 hPa | 3.05 mm | - | 104 W/m² | - |
| 1778137171 | 14.44° C | 99% | 1015.3 hPa | 3.56 mm | - | 28 W/m² | - |
| 1778136868 | 13.89° C | 99% | 1015.4 hPa | 10.16 mm | - | 38 W/m² | - |
* Rain latest hour (hover to see other rain measurements)
** Current wind speed in m/s (hover to see current wind gust speed)